Flag for Switzerland Weather past 2 weeks in Lucerne, Lucerne, Switzerland

Now
62 °F

Cool.


Feels Like: 62 °F
Forecast: 62 / 77 °F
Wind: No wind

Location: Giswil

Current Time: Jul 30, 2014 at 11:25:58 AM

Latest Report: Jul 30, 2014 at 10:00 AM


Visibility: N/A

Pressure: 29.87 "Hg

Humidity: 91%

Dew point: 59 °F

Location of LucerneLocation

Historic Weather in Lucerne — Graph

°F

Lucerne temperature yesterday

Maximum temperature yesterday: 68 °F (at 6:00 PM)
Minimum temperature yesterday: 58 °F (at 7:00 AM)
Average temperature yesterday: 62 °F

Past Weeks' High & Low Weather Summary

 TemperatureHumidityPressure
High87 °F (Jul 18, 4:00 PM)100% (Jul 23, 5:00 AM)30.24 "Hg (Jul 23, 5:00 AM)
Low51 °F (Jul 16, 6:00 AM)31% (Jul 18, 4:00 PM)29.75 "Hg (Jul 28, 4:00 PM)
Average65 °F81%29.98 "Hg
* Reported Jul 15 10:00 AM — Jul 30 10:00 AM, Lucerne, Weather by CustomWeather, © 2014

Note: Actual official high and low records may vary slightly from our data, if they occured in-between our weather recording intervals... More about our weather records

Advertising

Lucerne weather history for previous 24 hours

 ConditionsComfort  
Time TempWeatherWind HumidityBarometerVisibility
10:00 AM
Jul 30
62 °FCool.No wind91%29.87 "HgN/A
9:00 AM61 °FCool.2 mph92%29.87 "HgN/A
8:00 AM60 °FCool.2 mph96%29.85 "HgN/A
7:00 AM59 °FCool.1 mph97%29.85 "HgN/A
6:00 AM58 °FCool.2 mph96%29.85 "HgN/A
5:00 AM58 °FCool.1 mph96%29.85 "HgN/A
4:00 AM59 °FCool.1 mph96%29.85 "HgN/A
3:00 AM59 °FCool.1 mph97%29.88 "HgN/A
2:00 AM59 °FCool.1 mph97%29.86 "HgN/A
1:00 AM60 °FCool.No wind96%29.85 "HgN/A
12:00 AM59 °FCool.1 mph97%29.87 "HgN/A
11:00 PM
Jul 29
59 °FCool.2 mph98%29.87 "HgN/A
10:00 PM61 °FCool.1 mph96%29.85 "HgN/A
9:00 PM63 °FMild.2 mph94%29.83 "HgN/A
8:00 PM66 °FMild.2 mph76%29.81 "HgN/A
7:00 PM66 °FMild.1 mph73%29.80 "HgN/A
6:00 PM68 °FMild.3 mph68%29.80 "HgN/A
5:00 PM67 °FMild.2 mph67%29.80 "HgN/A
4:00 PM66 °FMild.1 mph68%29.80 "HgN/A
3:00 PM65 °FMild.2 mph67%29.80 "HgN/A
2:00 PM64 °FMild.1 mph71%29.82 "HgN/A
1:00 PM64 °FMild.3 mph74%29.82 "HgN/A
12:00 PM62 °FMild.2 mph79%29.82 "HgN/A
11:00 AM61 °FCool.2 mph84%29.83 "HgN/A
Weather by CustomWeather, © 2014

See weather overviewHow to use our weather pages